Regional Weather Roundup
Issued by NWS

Home | Current Version | Previous Version | Text Only | Print | Product List | Glossary On
Versions: 1 2 3 4 5 6 7 8 9 10 11 12 13 14 15 16 17 18 19 20 21 22 23 24 25 26 27
000
ASUS42 KFFC 311703
RWRGA
WEATHER ROUNDUP FOR GEORGIA
NATIONAL WEATHER SERVICE PEACHTREE CITY GA
100 PM EDT FRI OCT 31 2014

NOTE: "FAIR" INDICATES FEW OR NO CLOUDS BELOW 12,000 FEET WITH NO
SIGNIFICANT WEATHER AND/OR OBSTRUCTIONS TO VISIBILITY.

* = USE WITH CAUTION. THE STATIONS MARKED WITH AN ASTERISK MAY NOT
REPORT WEATHER SUCH AS PRECIPITATION, FOG, OR THUNDER AND ARE NOT
QUALITY CONTROLLED BY NWS.

THE REMARK "TC" DENOTES TEMPERATURE READING IN DEGREES CELSIUS.

GAZ001>058-311800-
NORTH GEORGIA

CITY           SKY/WX    TMP DP  RH WIND       PRES   REMARKS
ATLANTA        PTSUNNY   59  41  51 NW9       29.92F
ATHENS         SUNNY     64  42  44 W3        29.89F
CHAMBLEE       PTSUNNY   61  40  45 NW8       29.92F
PEACHTREE CITY PTSUNNY   64  41  42 NW8       29.93F
ROME           PTSUNNY   59  41  51 W7        29.96F
WEST ATLANTA   CLOUDY    57  42  57 W10       29.93F
GAINESVILLE    PTSUNNY   62  40  44 CALM      29.92F
CARTERSVILLE   CLOUDY    57  41  55 VRB3      29.96F


CITY           SKY/WX    TMP DP  RH WIND       PRES   REMARKS
DALTON*        CLOUDY    55  43  62 N6        29.96F
LAWRENCEVILLE* SUNNY     63  37  39 N8        29.90F
MARIETTA       PTSUNNY   60  42  51 NW7       29.93F
KENNESAW*      PTSUNNY   55  39  54 NW12G21   29.97S
$$

GAZ059>098-102>109-311800-
CENTRAL GEORGIA

CITY           SKY/WX    TMP DP  RH WIND       PRES   REMARKS
AUGUSTA-BUSH   PTSUNNY   68  49  50 CALM      29.87F
AUGUSTA-DANIEL PTSUNNY   69  48  47 VRB5      29.88F
COLUMBUS       MOSUNNY   65  39  38 NW6       29.93F
MACON          SUNNY     66  41  40 VRB7      29.90F
ROBINS AFB     SUNNY     67  43  42 W6        29.89F


CITY           SKY/WX    TMP DP  RH WIND       PRES   REMARKS
LAGRANGE*      CLOUDY    64  45  49 N6        29.95F
SYLVANIA*      PTSUNNY   72  55  53 CALM      29.87F
MILLEDGEVILLE* SUNNY     64  46  52 E3        29.89F
$$

GAZ099>101-110>166-311800-
SOUTH GEORGIA

CITY           SKY/WX    TMP DP  RH WIND       PRES   REMARKS
SAVANNAH       MOSUNNY   73  45  36 VRB3      29.86F
VALDOSTA       SUNNY     70  39  32 VRB3      29.91F
ALMA           MOSUNNY   68  50  52 NW8       29.87F
ST SIMONS      MOSUNNY   72  48  42 NW9       29.85F
FT STEWART     MOSUNNY   71  46  41 NW6       29.85F
ALBANY         SUNNY     67  45  45 NW9       29.94F
HUNTER AFB     MOSUNNY   72  47  40 VRB7      29.84F
MOODY AFB      SUNNY     69  41  35 W9        29.90F
BRUNSWICK      MOSUNNY   72  46  40 N6        29.86F


CITY           SKY/WX    TMP DP  RH WIND       PRES   REMARKS
BAINBRIDGE*    SUNNY     72  45  37 NW8       29.94F
MOULTRIE*      SUNNY     68  43  40 W9        29.93F
VIDALIA*       PTSUNNY   70  54  56 SW8       29.88F
WAYCROSS*      MOSUNNY   72  57  59 NW6       29.87F
DOUGLAS*       SUNNY     72  41  33 N8        29.90F
$$



USA.gov is the U.S. government's official web portal to all federal, state and local government web resources and services.